VLG454 LPPT-LEBL

Flight info

Callsign VLG454
Flight time N/A
Altitude 36000
Route ORVED DCT UREDI DCT DIPOL DCT RBO DCT PINAR DCT SEGRE DCT BRITO DCT PISUS DCT PONEN T600 CASPE
Aircraft A320/M-SDE3FGHIRWY/LB1

Departure

Time N/A
Airport Lisbon Humberto Delgado Airport (LPPT)

Arrival

Time 2026-05-07 18:43
Airport Josep Tarradellas Barcelona-El Prat Airport (LEBL)
Time Latitude Longitude Altitude Speed Heading
2026-05-07 18:36 41.15569 1.66869 6063 ft 225 kts 66°
2026-05-07 18:36 41.16213 1.68719 5825 ft 223 kts 66°
2026-05-07 18:36 41.16862 1.70582 5578 ft 221 kts 66°
2026-05-07 18:36 41.17504 1.72432 5325 ft 220 kts 66°
2026-05-07 18:37 41.18143 1.74272 5069 ft 219 kts 67°
2026-05-07 18:37 41.18770 1.76098 4906 ft 213 kts 67°
2026-05-07 18:37 41.19371 1.77850 4734 ft 203 kts 68°
2026-05-07 18:37 41.19947 1.79520 4478 ft 195 kts 68°
2026-05-07 18:38 41.20505 1.81130 4221 ft 189 kts 67°
2026-05-07 18:38 41.21045 1.82693 3970 ft 184 kts 67°
2026-05-07 18:38 41.21573 1.84219 3728 ft 179 kts 67°
2026-05-07 18:38 41.22088 1.85708 3493 ft 175 kts 67°
2026-05-07 18:39 41.22590 1.87163 3267 ft 172 kts 67°
2026-05-07 18:39 41.23083 1.88589 3050 ft 168 kts 66°
2026-05-07 18:39 41.23561 1.89977 2828 ft 166 kts 66°
2026-05-07 18:39 41.24034 1.91346 2614 ft 159 kts 67°
2026-05-07 18:40 41.24481 1.92642 2418 ft 149 kts 67°
2026-05-07 18:40 41.24904 1.93868 2225 ft 143 kts 67°
2026-05-07 18:40 41.25314 1.95058 2030 ft 141 kts 66°
2026-05-07 18:40 41.25719 1.96237 1837 ft 139 kts 66°
2026-05-07 18:41 41.26121 1.97404 1668 ft 136 kts 66°
2026-05-07 18:41 41.26510 1.98534 1476 ft 134 kts 66°
2026-05-07 18:41 41.26892 1.99646 1293 ft 132 kts 66°
2026-05-07 18:41 41.27274 2.00756 1116 ft 132 kts 65°
2026-05-07 18:42 41.27651 2.01854 941 ft 130 kts 66°
2026-05-07 18:42 41.28030 2.02955 757 ft 130 kts 66°
2026-05-07 18:42 41.28399 2.04036 583 ft 130 kts 66°
2026-05-07 18:42 41.28775 2.05131 390 ft 129 kts 65°
2026-05-07 18:43 41.29152 2.06234 219 ft 131 kts 67°
2026-05-07 18:43 41.29528 2.07325 43 ft 129 kts 66°
2026-05-07 18:43 41.29866 2.08324 22 ft 99 kts 66°
2026-05-07 18:43 41.30047 2.08826 21 ft 23 kts 63°
2026-05-07 18:44 41.30069 2.09039 18 ft 24 kts 137°
2026-05-07 18:44 41.29970 2.08982 19 ft 15 kts 231°
2026-05-07 18:44 41.29913 2.08890 20 ft 11 kts 231°
2026-05-07 18:44 41.29837 2.08742 18 ft 28 kts 242°
2026-05-07 18:45 41.29743 2.08504 17 ft 30 kts 244°
2026-05-07 18:45 41.29642 2.08253 16 ft 31 kts 218°
2026-05-07 18:45 41.29449 2.08319 20 ft 30 kts 155°
2026-05-07 18:45 41.29295 2.08333 19 ft 17 kts 258°
2026-05-07 18:46 41.29256 2.08237 19 ft 11 kts 201°
2026-05-07 18:46 41.29238 2.08227 19 ft 0 kts 201°